Погода в Тиинске

Россия / Ульяновская область     54°23′33″N   49°38′40″E
темп.,
°C
ветер,
м/с
пор.,
м/с
влажн.,
%
обл.,
%
осадки,
мм/ч
давл.,
гПа
погр.,
м
14 августа, вс
вс1401:00+17ссв357387 0.0 102077
04:00+16св358570 0.0 102195
07:00+17св37731 0.0 1021191
10:00+23св45467 0.0 1021743
13:00+25св554567 0.0 10211498
16:00+25св55375 0.0 10211529
19:00+21св3752100 0.0 1021235
22:00+16св37625 0.0 1022112
15 августа, пн
пн1501:00+14всв236321 0.0 102241
04:00+13всв22645 0.0 102328
07:00+15всв23615 0.0 102491
10:00+22всв24427 0.0 1024673
13:00+25св34395 0.0 10231653
16:00+25св444091 0.0 10221824
19:00+22ссв235921 0.0 102267
22:00+18св337421 0.0 102347
16 августа, вт
вт1601:00+16св22790 0.0 102425
04:00+15св22850 0.0 102418
07:00+17всв23790 0.0 102590
10:00+23в23520 0.0 1025744
13:00+26в22380 0.0 10251892
16:00+27всв23374 0.0 10232087
19:00+23всв38545 0.0 1023216
22:00+18всв396430 0.0 1024162
17 августа, ср
ср1701:00+16в35627 0.0 102481
04:00+15в23645 0.0 102437
07:00+16в25635 0.0 1024128
10:00+23в34435 0.0 1023615
13:00+26в34322 0.0 10221708
16:00+27всв34297 0.0 10212101
19:00+23св375161 0.0 1020146
22:00+18св38630 0.0 1021134
18 августа, чт
чт1801:00+16всв39680 0.0 1021146
04:00+15в34710 0.0 102149
07:00+17всв37690 0.0 1022169
10:00+24всв35460 0.0 1022650
13:00+27св45380 0.0 10211813
16:00+27всв44393 0.0 10212075
19:00+23всв59510 0.0 1022485
22:00+18всв512610 0.0 1024363